Tiempo cada hora Abbenrode

Hoy, 21 Octubre, Miércoles

Tiempo Temperatura Precipitaciones Viento Presión Humedad
00:00 +11°C° 0.2 mm 4 mps 737 mmHg 85%
01:00 +12°C° 0 mm 4 mps 736 mmHg 79%
02:00 +12°C° 0.2 mm 4 mps 736 mmHg 81%
03:00 +11°C° 0.2 mm 4 mps 736 mmHg 83%
04:00 +11°C° 0.2 mm 4 mps 736 mmHg 85%
05:00 +11°C° 0.1 mm 4 mps 736 mmHg 84%
06:00 +11°C° 0.1 mm 4 mps 736 mmHg 82%
07:00 +11°C° 0 mm 4 mps 735 mmHg 80%
08:00 +11°C° 0 mm 4 mps 735 mmHg 78%
09:00 +12°C° 0 mm 4 mps 735 mmHg 75%
10:00 +12°C° 0 mm 5 mps 735 mmHg 72%
11:00 +12°C° 0.1 mm 5 mps 735 mmHg 71%
12:00 +13°C° 0.1 mm 5 mps 735 mmHg 69%
13:00 +13°C° 0.1 mm 5 mps 735 mmHg 67%
14:00 +14°C° 0 mm 5 mps 734 mmHg 65%
15:00 +14°C° 0 mm 5 mps 734 mmHg 63%
16:00 +15°C° 0 mm 5 mps 734 mmHg 61%
17:00 +15°C° 0 mm 5 mps 734 mmHg 61%
18:00 +14°C° 0 mm 6 mps 734 mmHg 61%
19:00 +14°C° 0 mm 6 mps 734 mmHg 61%
20:00 +14°C° 0 mm 6 mps 735 mmHg 64%
21:00 +14°C° 0 mm 6 mps 735 mmHg 66%
22:00 +15°C° 0 mm 6 mps 735 mmHg 68%
23:00 +14°C° 0 mm 6 mps 735 mmHg 71%

Mañana, 22 Octubre, Jueves

Tiempo Temperatura Precipitaciones Viento Presión Humedad
00:00 +14°C° 0 mm 6 mps 736 mmHg 75%
01:00 +14°C° 0 mm 5 mps 736 mmHg 78%
02:00 +14°C° 0 mm 5 mps 736 mmHg 79%
03:00 +13°C° 0 mm 5 mps 736 mmHg 81%
04:00 +13°C° 0 mm 5 mps 736 mmHg 83%
05:00 +13°C° 0 mm 5 mps 737 mmHg 84%
06:00 +13°C° 0 mm 4 mps 737 mmHg 86%
07:00 +12°C° 0 mm 4 mps 738 mmHg 87%
08:00 +13°C° 0 mm 5 mps 738 mmHg 83%
09:00 +15°C° 0 mm 5 mps 738 mmHg 78%
10:00 +16°C° 0 mm 6 mps 739 mmHg 73%
11:00 +17°C° 0 mm 6 mps 739 mmHg 70%
12:00 +17°C° 0 mm 6 mps 739 mmHg 67%
13:00 +19°C° 0 mm 6 mps 739 mmHg 64%
14:00 +19°C° 0 mm 5 mps 738 mmHg 67%
15:00 +17°C° 0 mm 5 mps 738 mmHg 70%
16:00 +17°C° 0 mm 4 mps 738 mmHg 73%
17:00 +17°C° 0 mm 4 mps 738 mmHg 74%
18:00 +15°C° 0 mm 4 mps 738 mmHg 76%
19:00 +14°C° 0 mm 4 mps 738 mmHg 78%
20:00 +14°C° 0.4 mm 5 mps 738 mmHg 81%
21:00 +14°C° 0.4 mm 5 mps 738 mmHg 85%
22:00 +14°C° 0.4 mm 5 mps 738 mmHg 88%
23:00 +14°C° 0.2 mm 4 mps 738 mmHg 89%

Pasado mañana, 23 Octubre, Viernes

Tiempo Temperatura Precipitaciones Viento Presión Humedad
00:00 +14°C° 0.2 mm 4 mps 738 mmHg 89%
01:00 +14°C° 0.2 mm 4 mps 738 mmHg 90%
02:00 +13°C° 0.3 mm 4 mps 737 mmHg 90%
03:00 +13°C° 0.3 mm 3 mps 737 mmHg 91%
04:00 +13°C° 0.3 mm 3 mps 737 mmHg 91%
05:00 +13°C° 0.1 mm 3 mps 737 mmHg 92%
06:00 +12°C° 0.1 mm 3 mps 737 mmHg 93%
07:00 +12°C° 0.1 mm 3 mps 737 mmHg 94%
08:00 +13°C° 0.1 mm 3 mps 737 mmHg 91%
09:00 +13°C° 0.1 mm 3 mps 738 mmHg 88%
10:00 +14°C° 0.1 mm 3 mps 738 mmHg 85%
11:00 +16°C° 0.3 mm 3 mps 738 mmHg 81%
12:00 +15°C° 0.3 mm 4 mps 738 mmHg 78%
13:00 +17°C° 0.3 mm 4 mps 737 mmHg 74%
14:00 +16°C° 0.2 mm 3 mps 737 mmHg 77%
15:00 +16°C° 0.2 mm 2 mps 737 mmHg 80%
16:00 +15°C° 0.2 mm 2 mps 737 mmHg 83%
17:00 +14°C° 0.1 mm 2 mps 737 mmHg 86%
18:00 +13°C° 0.1 mm 2 mps 737 mmHg 89%
19:00 +12°C° 0.1 mm 2 mps 737 mmHg 92%
20:00 +12°C° 0 mm 2 mps 737 mmHg 92%
21:00 +12°C° 0 mm 2 mps 737 mmHg 92%
22:00 +11°C° 0 mm 3 mps 737 mmHg 93%
23:00 +11°C° 0 mm 3 mps 737 mmHg 92%

24 Octubre, Sábado

Tiempo Temperatura Precipitaciones Viento Presión Humedad
00:00 +10°C° 0 mm 4 mps 737 mmHg 91%
01:00 +10°C° 0 mm 4 mps 737 mmHg 90%
02:00 +10°C° 0 mm 4 mps 737 mmHg 91%
03:00 +10°C° 0 mm 4 mps 738 mmHg 91%
04:00 +8°C° 0 mm 4 mps 738 mmHg 91%
05:00 +8°C° 0 mm 4 mps 738 mmHg 91%
06:00 +8°C° 0 mm 4 mps 738 mmHg 90%
07:00 +8°C° 0 mm 5 mps 738 mmHg 89%
08:00 +9°C° 0 mm 5 mps 739 mmHg 86%
09:00 +9°C° 0 mm 5 mps 739 mmHg 83%
10:00 +10°C° 0 mm 5 mps 740 mmHg 80%
11:00 +10°C° 0.1 mm 5 mps 740 mmHg 77%
12:00 +10°C° 0.1 mm 5 mps 740 mmHg 74%
13:00 +12°C° 0.1 mm 5 mps 740 mmHg 71%
14:00 +12°C° 0 mm 4 mps 740 mmHg 73%
15:00 +12°C° 0 mm 3 mps 740 mmHg 74%
16:00 +12°C° 0 mm 3 mps 739 mmHg 76%
17:00 +11°C° 0 mm 3 mps 739 mmHg 79%
18:00 +10°C° 0 mm 3 mps 739 mmHg 81%
19:00 +9°C° 0 mm 3 mps 739 mmHg 84%
20:00 +9°C° 0 mm 3 mps 739 mmHg 85%
21:00 +9°C° 0 mm 3 mps 739 mmHg 86%
22:00 +9°C° 0 mm 3 mps 739 mmHg 87%
23:00 +9°C° 0 mm 3 mps 738 mmHg 88%

25 Octubre, Domingo

Tiempo Temperatura Precipitaciones Viento Presión Humedad
00:00 +8°C° 0 mm 3 mps 738 mmHg 89%
01:00 +8°C° 0 mm 3 mps 738 mmHg 89%
02:00 +8°C° 0 mm 4 mps 737 mmHg 89%
03:00 +8°C° 0 mm 4 mps 737 mmHg 89%
04:00 +8°C° 0 mm 5 mps 737 mmHg 89%
05:00 +9°C° 0 mm 5 mps 737 mmHg 89%
06:00 +9°C° 0 mm 5 mps 736 mmHg 88%
07:00 +9°C° 0 mm 5 mps 736 mmHg 88%
08:00 +10°C° 0 mm 6 mps 736 mmHg 82%
09:00 +11°C° 0 mm 6 mps 736 mmHg 77%
10:00 +14°C° 0 mm 7 mps 735 mmHg 72%
11:00 +15°C° 0 mm 7 mps 735 mmHg 67%
12:00 +16°C° 0 mm 7 mps 735 mmHg 62%
13:00 +17°C° 0 mm 7 mps 734 mmHg 57%
14:00 +16°C° 0 mm 6 mps 734 mmHg 60%
15:00 +16°C° 0 mm 5 mps 733 mmHg 62%
16:00 +15°C° 0 mm 5 mps 733 mmHg 65%
17:00 +14°C° 0 mm 4 mps 733 mmHg 68%
18:00 +13°C° 0 mm 4 mps 733 mmHg 71%
19:00 +12°C° 0 mm 4 mps 733 mmHg 74%
20:00 +12°C° 0 mm 4 mps 733 mmHg 76%
21:00 +12°C° 0 mm 3 mps 733 mmHg 77%
22:00 +11°C° 0 mm 3 mps 734 mmHg 79%
23:00 +11°C° 0 mm 3 mps 734 mmHg 82%

26 Octubre, Lunes

Tiempo Temperatura Precipitaciones Viento Presión Humedad
00:00 +10°C° 0 mm 2 mps 734 mmHg 84%
01:00 +10°C° 0 mm 2 mps 734 mmHg 87%
02:00 +9°C° 0 mm 2 mps 734 mmHg 88%
03:00 +9°C° 0 mm 2 mps 734 mmHg 89%
04:00 +9°C° 0 mm 2 mps 734 mmHg 90%
05:00 +9°C° 0 mm 2 mps 734 mmHg 89%
06:00 +9°C° 0 mm 2 mps 734 mmHg 89%
07:00 +9°C° 0 mm 2 mps 734 mmHg 88%
08:00 +9°C° 0.1 mm 2 mps 735 mmHg 86%
09:00 +11°C° 0.1 mm 1 mps 735 mmHg 83%
10:00 +11°C° 0.1 mm 1 mps 735 mmHg 81%
11:00 +11°C° 0.1 mm 1 mps 735 mmHg 78%
12:00 +12°C° 0.1 mm 1 mps 735 mmHg 74%
13:00 +12°C° 0.1 mm 1 mps 735 mmHg 71%
14:00 +12°C° 0 mm 1 mps 734 mmHg 73%
15:00 +12°C° 0 mm 1 mps 734 mmHg 74%
16:00 +12°C° 0 mm 1 mps 734 mmHg 76%
17:00 +11°C° 0 mm 1 mps 734 mmHg 78%
18:00 +9°C° 0 mm 0 mps 735 mmHg 81%
19:00 +8°C° 0 mm 0 mps 735 mmHg 84%
20:00 +8°C° 0 mm 0 mps 735 mmHg 85%
21:00 +8°C° 0 mm 1 mps 735 mmHg 87%
22:00 +8°C° 0 mm 1 mps 735 mmHg 88%
23:00 +8°C° 0 mm 1 mps 736 mmHg 89%

27 Octubre, Martes

Tiempo Temperatura Precipitaciones Viento Presión Humedad
00:00 +7°C° 0 mm 1 mps 736 mmHg 91%
01:00 +7°C° 0 mm 1 mps 736 mmHg 92%
02:00 +7°C° 0 mm 1 mps 736 mmHg 93%
03:00 +7°C° 0 mm 1 mps 736 mmHg 94%
04:00 +7°C° 0 mm 1 mps 736 mmHg 94%
05:00 +6°C° 0 mm 1 mps 737 mmHg 95%
06:00 +6°C° 0 mm 1 mps 737 mmHg 95%
07:00 +6°C° 0 mm 1 mps 738 mmHg 95%
08:00 +7°C° 0 mm 1 mps 738 mmHg 91%
09:00 +8°C° 0 mm 1 mps 738 mmHg 87%
10:00 +8°C° 0 mm 2 mps 738 mmHg 82%
11:00 +10°C° 0 mm 1 mps 739 mmHg 78%
12:00 +11°C° 0 mm 1 mps 739 mmHg 74%
13:00 +11°C° 0 mm 1 mps 739 mmHg 71%
14:00 +11°C° 0 mm 1 mps 739 mmHg 72%
15:00 +11°C° 0 mm 1 mps 739 mmHg 73%
16:00 +11°C° 0 mm 1 mps 740 mmHg 74%
17:00 +8°C° 0 mm 0 mps 740 mmHg 79%
18:00 +7°C° 0 mm 0 mps 740 mmHg 83%
19:00 +6°C° 0 mm 0 mps 740 mmHg 88%
20:00 +6°C° 0 mm 0 mps 741 mmHg 88%
21:00 +7°C° 0 mm 1 mps 741 mmHg 89%
22:00 +6°C° 0 mm 1 mps 741 mmHg 89%
23:00 +6°C° 0 mm 1 mps 741 mmHg 89%
Mostrar más

Necesitamos Su Consentimiento

Meteoprog y nuestros Proveedores de Servicios pueden almacenar y acceder a sus datos personales como cookies, identificadores de dispositivo u otras tecnologías similares de su dispositivo y procesar dichos datos para personalizar contenido y anuncios, además de ofrecer funciones de redes sociales y analizar el tráfico.

  • Almacenar y/o acceder a información en su dispositivo

    Se puede almacenar o acceder a cookies, identificadores de dispositivo u otra información de su dispositivo para los fines anteriormente indicados.

  • Anuncios y contenido personalizados, medición de anuncios y contenido, percepciones del público, y desarrollo de productos

    Los anuncios y el contenido pueden personalizarse en base a su perfil. Se pueden añadir más datos para personalizar mejor los anuncios y contenidos. Se puede medir el rendimiento de los anuncios y contenidos. Se puede obtener la percepción sobre el público que ha visto los anuncios y contenidos. Dichos datos pueden usarse para desarrollar o mejorar la experiencia del usuario, sistemas y software.

Al hacer clic en ‘Estoy De Acuerdo’ usted permitirá el uso de las cookies, identificadores de dispositivo, balizas web u otras tecnologías similares indicadas. Su configuración puede cambiarse desde el navegador de su dispositivo.

Para ciertos fines, los intereses legítimos pueden ser considerados por encima del consentimiento. Puede leer más sobre ello en nuestra Política de Privacidad y Cookies.